Galena, Nevada Weather observations

Data are for 60 minute period ending nearest time listed.
 Day   Time    Ave.   Ave.  Ave.  Vector   Max.   Total    Solar   
  of    of     Air    Rel.  Wind   Wind    Wind  Precip.   Rad.    
Year   Day     Temp.  Hum.  Speed  Dir.    Gust                    
2026   (PST)    F      %     mph   deg.    mph     in.     W/m2    
------------------------------------------------------------------- 
 127    3:00   55.0    57    4.0   267      7.0    1.16       0  
 127    4:00   49.0    69    2.0   285      6.0    1.16       0  
 127    5:00   50.0    67    2.0   266      6.0    1.16       0  
 127    6:00   54.0    60    2.0   248      5.0    1.16      49  
 127    7:00   62.0    52    2.0   191      7.0    1.16     228  
 127    8:00   65.0    43    2.0    96      6.0    1.16     429  
 127    9:00   67.0    40    3.0    98      8.0    1.16     617  
 127   10:00   69.0    35    4.0    32     11.0    1.16     773  
 127   11:00   72.0    28    3.0   140     11.0    1.16     884  
 127   12:00   75.0    18    9.0   219     16.0    1.16     950  
 127   13:00   76.0    15    7.0   245     20.0    1.16     966  
 127   14:00   76.0    15    3.0   107     20.0    1.16     914  
 127   15:00   76.0    18    5.0   289     15.0    1.16     803  
 127   16:00   75.0    18    5.0   219     16.0    1.16     655  
 127   17:00   73.0    18    6.0   247     23.0    1.16     472  
 127   18:00   68.0    22    9.0   286     15.0    1.16      68  
 127   19:00   62.0    28   11.0   264     18.0    1.16      21  
 127   20:00   60.0    36   14.0   274     27.0    1.16       2  
 127   21:00   58.0    33    3.0   122     24.0    1.16       0  
 127   22:00   55.0    36    3.0   260     10.0    1.16       0  
 127   23:00   58.0    12    6.0   259     16.0    1.16       0  
 128    0:00   53.0    16    5.0   265      9.0    1.16       0  
 128    1:00   50.0    23    4.0   296      7.0    1.16       0  
 128    2:00   51.0    17    1.0    44      6.0    1.16       0  

Return to Galena, Nevada graphs page.


Western Regional Climate Center,wrcc@dri.edu